QPF
0.00 0.00 0.00 0.01 0.00 0.00 0.01 0.01 0.02 0.01 0.00 0.00 0.00 0.00 0.00 0.00 0.00 0.00 0.00 0.01 0.01 0.01 0.01 0.02 0.02 0.02 0.03 0.02 0.03 0.05 0.01 0.00 0.00 0.00 0.01 0.03 0.05 0.04 0.03 0.02 0.02 0.01 0.01 0.01
0.00 0.00 0.00 0.00 0.00 0.00 0.00 0.00 0.01 0.00 0.00 0.00 0.00 0.00 0.00 0.00 0.00 0.00 0.00 0.00 0.00 0.01 0.01 0.01 0.02 0.02 0.05 0.07 0.04 0.03 0.01 0.00 0.00 0.00 0.00 0.02 0.03 0.02 0.03 0.03 0.02 0.00 0.01 0.01
0.00 0.00 0.00 0.00 0.00 0.00 0.01 0.01 0.01 0.00 0.00 0.01 0.01 0.01 0.00 0.00 0.00 0.00 0.00 0.00 0.00 0.00 0.00 0.01 0.01 0.01 0.02 0.05 0.02 0.01 0.00 0.00 0.00 0.00 0.00 0.01 0.02 0.02 0.03 0.03 0.03 0.01 0.01 0.01
0.00 0.00 0.00 0.00 0.00 0.00 0.01 0.00 0.00 0.01 0.01 0.01 0.01 0.02 0.00 0.00 0.00 0.00 0.00 0.00 0.00 0.00 0.00 0.01 0.01 0.01 0.01 0.02 0.01 0.00 0.00 0.00 0.00 0.00 0.00 0.00 0.01 0.03 0.03 0.02 0.02 0.01 0.01 0.01
0.00 0.00 0.00 0.00 0.00 0.00 0.00 0.01 0.01 0.00 0.01 0.01 0.01 0.02 0.01 0.00 0.00 0.00 0.00 0.00 0.00 0.00 0.00 0.01 0.02 0.02 0.01 0.00 0.01 0.00 0.00 0.00 0.00 0.00 0.00 0.00 0.00 0.01 0.02 0.01 0.01 0.01 0.01 0.01
0.00 0.00 0.00 0.00 0.00 0.00 0.01 0.01 0.01 0.00 0.00 0.01 0.01 0.01 0.01 0.00 0.00 0.00 0.00 0.00 0.00 0.00 0.00 0.00 0.00 0.00 0.01 0.01 0.01 0.00 0.00 0.00 0.01 0.00 0.00 0.00 0.00 0.01 0.02 0.04 0.03 0.03 0.02 0.02
0.00 0.00 0.00 0.00 0.00 0.01 0.01 0.02 0.03 0.02 0.02 0.01 0.01 0.01 0.01 0.00 0.00 0.00 0.00 0.00 0.00 0.00 0.00 0.00 0.00 0.00 0.00 0.01 0.01 0.00 0.00 0.00 0.01 0.00 0.00 0.00 0.00 0.00 0.01 0.02 0.02 0.03 0.03 0.03
0.01 0.01 0.00 0.00 0.00 0.01 0.01 0.01 0.03 0.03 0.03 0.01 0.00 0.01 0.01 0.00 0.00 0.00 0.00 0.00 0.00 0.00 0.00 0.00 0.00 0.00 0.00 0.01 0.01 0.00 0.00 0.00 0.00 0.00 0.00 0.00 0.00 0.00 0.01 0.01 0.01 0.01 0.01 0.01
0.00 0.01 0.00 0.00 0.00 0.00 0.00 0.01 0.01 0.02 0.02 0.02 0.01 0.01 0.00 0.00 0.00 0.00 0.00 0.00 0.00 0.00 0.00 0.00 0.00 0.00 0.01 0.01 0.01 0.01 0.00 0.00 0.00 0.00 0.00 0.00 0.00 0.00 0.01 0.01 0.01 0.01 0.01 0.01
0.00 0.01 0.01 0.00 0.00 0.00 0.00 0.00 0.00 0.02 0.03 0.02 0.01 0.01 0.01 0.00 0.00 0.00 0.00 0.00 0.00 0.00 0.00 0.00 0.00 0.00 0.00 0.00 0.01 0.02 0.01 0.00 0.00 0.00 0.00 0.00 0.00 0.00 0.00 0.01 0.01 0.01 0.01 0.01
0.00 0.00 0.00 0.00 0.00 0.01 0.00 0.00 0.00 0.00 0.01 0.02 0.02 0.01 0.00 0.00 0.00 0.00 0.00 0.00 0.00 0.00 0.00 0.00 0.00 0.00 0.00 0.00 0.00 0.01 0.01 0.00 0.00 0.01 0.01 0.00 0.00 0.00 0.00 0.00 0.00 0.00 0.00 0.01
0.00 0.00 0.00 0.00 0.00 0.00 0.01 0.01 0.00 0.00 0.00 0.00 0.01 0.01 0.00 0.00 0.00 0.00 0.00 0.00 0.00 0.00 0.00 0.00 0.00 0.00 0.00 0.00 0.00 0.00 0.00 0.00 0.01 0.00 0.00 0.00 0.00 0.00 0.00 0.00 0.00 0.00 0.00 0.00
0.00 0.00 0.00 0.00 0.00 0.00 0.00 0.00 0.00 0.00 0.00 0.00 0.00 0.01 0.00 0.00 0.00 0.00 0.00 0.00 0.00 0.00 0.00 0.00 0.00 0.00 0.00 0.01 0.01 0.00 0.00 0.01 0.00 0.00 0.00 0.00 0.00 0.00 0.00 0.00 0.00 0.00 0.00 0.00
0.00 0.00 0.00 0.00 0.00 0.00 0.01 0.00 0.00 0.00 0.00 0.00 0.00 0.00 0.00 0.00 0.00 0.00 0.00 0.00 0.00 0.00 0.00 0.00 0.00 0.00 0.00 0.00 0.00 0.00 0.00 0.01 0.00 0.00 0.00 0.00 0.00 0.00 0.00 0.00 0.00 0.00 0.00 0.00
0.00 0.00 0.00 0.00 0.00 0.00 0.01 0.00 0.00 0.00 0.00 0.00 0.00 0.00 0.00 0.00 0.00 0.00 0.00 0.00 0.00 0.00 0.00 0.00 0.00 0.00 0.00 0.00 0.00 0.00 0.00 0.01 0.01 0.00 0.00 0.00 0.00 0.01 0.00 0.00 0.00 0.00 0.00 0.00
0.00 0.00 0.00 0.00 0.00 0.00 0.00 0.00 0.00 0.00 0.00 0.00 0.00 0.00 0.00 0.00 0.00 0.00 0.00 0.00 0.00 0.00 0.00 0.00 0.01 0.00 0.00 0.00 0.00 0.00 0.00 0.00 0.00 0.00 0.01 0.01 0.00 0.01 0.01 0.01 0.01 0.01 0.01 0.00
0.01 0.00 0.00 0.00 0.00 0.01 0.01 0.00 0.00 0.00 0.00 0.00 0.00 0.00 0.00 0.00 0.00 0.00 0.00 0.00 0.00 0.00 0.00 0.00 0.00 0.00 0.00 0.00 0.00 0.00 0.00 0.00 0.00 0.00 0.00 0.00 0.00 0.00 0.01 0.01 0.01 0.01 0.01 0.01
0.01 0.01 0.01 0.00 0.00 0.00 0.00 0.00 0.00 0.00 0.00 0.00 0.00 0.00 0.00 0.00 0.00 0.00 0.00 0.00 0.00 0.00 0.00 0.00 0.00 0.00 0.00 0.00 0.00 0.00 0.00 0.00 0.00 0.00 0.01 0.01 0.01 0.00 0.00 0.01 0.01 0.00 0.01 0.01
0.00 0.01 0.01 0.01 0.01 0.00 0.00 0.00 0.00 0.00 0.00 0.00 0.00 0.00 0.00 0.00 0.00 0.00 0.00 0.00 0.00 0.00 0.00 0.00 0.00 0.00 0.00 0.00 0.00 0.01 0.00 0.00 0.00 0.00 0.01 0.01 0.00 0.00 0.00 0.00 0.00 0.01 0.01 0.00
0.00 0.01 0.01 0.01 0.01 0.00 0.00 0.00 0.00 0.00 0.00 0.00 0.00 0.00 0.00 0.00 0.01 0.01 0.00 0.00 0.00 0.00 0.01 0.00 0.00 0.00 0.00 0.00 0.00 0.00 0.00 0.00 0.00 0.00 0.00 0.00 0.00 0.00 0.00 0.00 0.00 0.01 0.01 0.01
0.01 0.01 0.01 0.01 0.01 0.00 0.00 0.00 0.00 0.00 0.00 0.00 0.00 0.00 0.00 0.00 0.00 0.01 0.00 0.00 0.00 0.00 0.00 0.00 0.00 0.00 0.00 0.00 0.00 0.00 0.00 0.00 0.00 0.00 0.00 0.00 0.00 0.00 0.00 0.00 0.00 0.00 0.01 0.01
0.01 0.01 0.01 0.01 0.01 0.01 0.00 0.00 0.00 0.00 0.00 0.00 0.00 0.00 0.00 0.00 0.00 0.00 0.00 0.00 0.00 0.00 0.00 0.00 0.00 0.00 0.00 0.00 0.00 0.00 0.00 0.00 0.00 0.00 0.00 0.00 0.00 0.00 0.00 0.00 0.00 0.01 0.00 0.00
0.00 0.00 0.00 0.01 0.00 0.00 0.00 0.00 0.00 0.00 0.00 0.00 0.00 0.00 0.00 0.00 0.00 0.00 0.00 0.00 0.00 0.00 0.00 0.00 0.00 0.00 0.00 0.00 0.00 0.01 0.00 0.00 0.00 0.00 0.00 0.00 0.00 0.00 0.00 0.00 0.00 0.00 0.00 0.01
0.00 0.00 0.00 0.00 0.00 0.00 0.00 0.00 0.00 0.00 0.00 0.00 0.00 0.00 0.00 0.00 0.00 0.00 0.00 0.00 0.00 0.01 0.01 0.00 0.01 0.01 0.00 0.01 0.01 0.01 0.00 0.00 0.01 0.00 0.00 0.01 0.01 0.01 0.00 0.00 0.00 0.00 0.00 0.01
0.01 0.01 0.01 0.00 0.00 0.00 0.00 0.00 0.00 0.00 0.00 0.00 0.00 0.00 0.00 0.00 0.00 0.00 0.00 0.00 0.00 0.01 0.01 0.00 0.00 0.01 0.01 0.01 0.01 0.01 0.01 0.01 0.01 0.01 0.01 0.01 0.02 0.01 0.01 0.00 0.00 0.00 0.01 0.01
0.00 0.00 0.01 0.00 0.00 0.00 0.00 0.00 0.00 0.00 0.00 0.00 0.00 0.00 0.00 0.00 0.00 0.00 0.00 0.00 0.00 0.00 0.01 0.00 0.01 0.01 0.01 0.01 0.01 0.01 0.01 0.01 0.02 0.02 0.02 0.01 0.01 0.01 0.01 0.01 0.01 0.01 0.01 0.02
MSLP
1012.76 1013.36 1013.87 1014.25 1014.51 1014.68 1014.77 1014.82 1014.84 1014.84 1014.80 1014.70 1014.54 1014.30 1013.99 1013.66 1013.33 1013.05 1012.86 1012.76 1012.77 1012.86 1012.98 1013.10 1013.19 1013.22 1013.21 1013.16 1013.12 1013.11 1013.15 1013.25 1013.40 1013.56 1013.71 1013.82 1013.87 1013.86 1013.81 1013.75 1013.73 1013.78 1013.93 1014.18
1013.34 1013.85 1014.26 1014.57 1014.78 1014.93 1015.03 1015.13 1015.22 1015.29 1015.32 1015.27 1015.13 1014.87 1014.52 1014.11 1013.69 1013.31 1013.04 1012.88 1012.85 1012.91 1013.04 1013.18 1013.29 1013.35 1013.36 1013.33 1013.29 1013.28 1013.33 1013.45 1013.62 1013.82 1014.01 1014.16 1014.23 1014.24 1014.19 1014.12 1014.08 1014.10 1014.23 1014.49
1013.74 1014.14 1014.45 1014.68 1014.85 1014.99 1015.13 1015.29 1015.47 1015.64 1015.75 1015.76 1015.64 1015.37 1014.98 1014.50 1013.99 1013.54 1013.18 1012.98 1012.91 1012.97 1013.11 1013.27 1013.42 1013.51 1013.54 1013.52 1013.50 1013.50 1013.56 1013.68 1013.87 1014.09 1014.30 1014.47 1014.57 1014.58 1014.54 1014.46 1014.41 1014.43 1014.55 1014.81
1013.98 1014.26 1014.46 1014.61 1014.74 1014.90 1015.09 1015.33 1015.61 1015.87 1016.07 1016.14 1016.05 1015.78 1015.35 1014.82 1014.24 1013.72 1013.31 1013.05 1012.96 1013.02 1013.18 1013.37 1013.55 1013.67 1013.74 1013.74 1013.73 1013.74 1013.80 1013.92 1014.11 1014.33 1014.55 1014.73 1014.84 1014.87 1014.83 1014.76 1014.71 1014.72 1014.85 1015.10
1014.11 1014.26 1014.37 1014.46 1014.57 1014.74 1014.99 1015.31 1015.69 1016.05 1016.32 1016.46 1016.39 1016.12 1015.67 1015.08 1014.46 1013.87 1013.41 1013.12 1013.01 1013.07 1013.24 1013.46 1013.67 1013.83 1013.92 1013.95 1013.95 1013.96 1014.01 1014.13 1014.31 1014.53 1014.74 1014.92 1015.03 1015.07 1015.04 1014.98 1014.93 1014.95 1015.07 1015.32
1014.19 1014.24 1014.27 1014.32 1014.42 1014.61 1014.92 1015.32 1015.78 1016.22 1016.56 1016.74 1016.70 1016.42 1015.95 1015.33 1014.65 1014.02 1013.52 1013.19 1013.06 1013.11 1013.28 1013.51 1013.74 1013.93 1014.04 1014.09 1014.10 1014.12 1014.17 1014.27 1014.44 1014.64 1014.85 1015.02 1015.13 1015.17 1015.15 1015.10 1015.06 1015.08 1015.20 1015.43
1014.27 1014.26 1014.24 1014.27 1014.38 1014.60 1014.96 1015.42 1015.94 1016.43 1016.82 1017.02 1016.99 1016.71 1016.22 1015.56 1014.85 1014.18 1013.64 1013.28 1013.11 1013.13 1013.29 1013.52 1013.75 1013.94 1014.06 1014.12 1014.14 1014.16 1014.21 1014.31 1014.47 1014.66 1014.86 1015.02 1015.14 1015.18 1015.17 1015.13 1015.09 1015.11 1015.21 1015.42
1014.36 1014.33 1014.31 1014.35 1014.49 1014.75 1015.14 1015.64 1016.19 1016.70 1017.10 1017.30 1017.27 1016.98 1016.47 1015.79 1015.06 1014.36 1013.78 1013.37 1013.17 1013.15 1013.26 1013.46 1013.67 1013.85 1013.97 1014.03 1014.06 1014.09 1014.14 1014.25 1014.40 1014.59 1014.79 1014.96 1015.07 1015.13 1015.12 1015.08 1015.05 1015.06 1015.14 1015.31
1014.47 1014.47 1014.49 1014.56 1014.73 1015.02 1015.44 1015.95 1016.49 1017.00 1017.38 1017.56 1017.51 1017.20 1016.67 1015.99 1015.25 1014.53 1013.92 1013.48 1013.23 1013.15 1013.21 1013.35 1013.52 1013.66 1013.77 1013.83 1013.86 1013.90 1013.97 1014.09 1014.26 1014.46 1014.66 1014.85 1014.97 1015.04 1015.04 1015.00 1014.96 1014.96 1015.01 1015.14
1014.55 1014.62 1014.71 1014.84 1015.06 1015.38 1015.79 1016.29 1016.80 1017.26 1017.59 1017.73 1017.65 1017.33 1016.80 1016.13 1015.39 1014.68 1014.06 1013.59 1013.30 1013.16 1013.16 1013.23 1013.34 1013.44 1013.51 1013.56 1013.59 1013.65 1013.74 1013.88 1014.07 1014.30 1014.52 1014.72 1014.86 1014.94 1014.95 1014.92 1014.87 1014.84 1014.86 1014.94
1014.59 1014.76 1014.92 1015.13 1015.38 1015.72 1016.12 1016.57 1017.02 1017.41 1017.67 1017.76 1017.64 1017.32 1016.81 1016.17 1015.47 1014.79 1014.19 1013.72 1013.40 1013.22 1013.15 1013.15 1013.18 1013.22 1013.26 1013.28 1013.31 1013.37 1013.49 1013.66 1013.88 1014.13 1014.38 1014.60 1014.76 1014.86 1014.88 1014.85 1014.79 1014.74 1014.74 1014.78
1014.57 1014.83 1015.09 1015.36 1015.65 1015.98 1016.35 1016.74 1017.10 1017.40 1017.58 1017.62 1017.47 1017.15 1016.68 1016.10 1015.48 1014.86 1014.32 1013.88 1013.55 1013.34 1013.21 1013.14 1013.11 1013.08 1013.06 1013.05 1013.07 1013.13 1013.26 1013.45 1013.69 1013.97 1014.24 1014.49 1014.67 1014.78 1014.81 1014.79 1014.73 1014.68 1014.65 1014.67
1014.53 1014.88 1015.21 1015.52 1015.83 1016.15 1016.47 1016.77 1017.03 1017.23 1017.33 1017.31 1017.15 1016.85 1016.44 1015.95 1015.43 1014.92 1014.46 1014.07 1013.77 1013.55 1013.38 1013.26 1013.15 1013.06 1012.97 1012.91 1012.90 1012.94 1013.06 1013.26 1013.51 1013.80 1014.09 1014.35 1014.56 1014.69 1014.74 1014.73 1014.69 1014.63 1014.60 1014.60
1014.51 1014.92 1015.30 1015.64 1015.95 1016.23 1016.48 1016.68 1016.85 1016.94 1016.96 1016.89 1016.72 1016.46 1016.13 1015.75 1015.36 1014.97 1014.62 1014.32 1014.06 1013.85 1013.66 1013.48 1013.31 1013.15 1012.99 1012.87 1012.81 1012.81 1012.90 1013.07 1013.32 1013.60 1013.90 1014.17 1014.39 1014.54 1014.62 1014.64 1014.62 1014.58 1014.56 1014.57
1014.59 1015.03 1015.42 1015.76 1016.04 1016.27 1016.44 1016.55 1016.61 1016.61 1016.55 1016.44 1016.28 1016.07 1015.82 1015.56 1015.30 1015.05 1014.82 1014.61 1014.41 1014.22 1014.02 1013.80 1013.57 1013.34 1013.10 1012.91 1012.77 1012.72 1012.75 1012.88 1013.09 1013.35 1013.64 1013.91 1014.14 1014.31 1014.42 1014.48 1014.50 1014.50 1014.51 1014.54
1014.81 1015.24 1015.62 1015.93 1016.17 1016.32 1016.40 1016.42 1016.38 1016.30 1016.19 1016.05 1015.89 1015.73 1015.57 1015.42 1015.28 1015.16 1015.04 1014.92 1014.78 1014.62 1014.42 1014.17 1013.88 1013.57 1013.26 1012.99 1012.77 1012.64 1012.60 1012.67 1012.82 1013.04 1013.30 1013.56 1013.80 1013.99 1014.14 1014.24 1014.31 1014.36 1014.42 1014.48
1015.16 1015.57 1015.91 1016.17 1016.34 1016.42 1016.42 1016.35 1016.24 1016.09 1015.93 1015.77 1015.62 1015.50 1015.42 1015.36 1015.32 1015.30 1015.28 1015.23 1015.14 1015.00 1014.79 1014.51 1014.18 1013.81 1013.43 1013.07 1012.77 1012.55 1012.44 1012.43 1012.52 1012.69 1012.90 1013.14 1013.38 1013.59 1013.77 1013.92 1014.04 1014.15 1014.25 1014.36
1015.61 1015.96 1016.25 1016.44 1016.55 1016.56 1016.49 1016.36 1016.18 1015.99 1015.80 1015.63 1015.50 1015.41 1015.37 1015.38 1015.42 1015.46 1015.50 1015.50 1015.44 1015.31 1015.10 1014.79 1014.42 1014.00 1013.56 1013.13 1012.76 1012.46 1012.27 1012.19 1012.21 1012.31 1012.48 1012.69 1012.92 1013.14 1013.34 1013.53 1013.69 1013.85 1013.99 1014.14
1016.04 1016.34 1016.56 1016.69 1016.74 1016.70 1016.58 1016.40 1016.20 1015.98 1015.78 1015.61 1015.50 1015.43 1015.43 1015.47 1015.54 1015.62 1015.68 1015.70 1015.65 1015.52 1015.30 1014.98 1014.58 1014.12 1013.64 1013.17 1012.74 1012.38 1012.13 1011.97 1011.92 1011.97 1012.09 1012.26 1012.46 1012.67 1012.88 1013.08 1013.28 1013.46 1013.64 1013.82
1016.35 1016.59 1016.76 1016.84 1016.84 1016.76 1016.62 1016.44 1016.23 1016.02 1015.83 1015.68 1015.58 1015.54 1015.55 1015.60 1015.68 1015.76 1015.82 1015.83 1015.77 1015.63 1015.39 1015.06 1014.65 1014.18 1013.68 1013.18 1012.72 1012.33 1012.02 1011.81 1011.70 1011.68 1011.74 1011.86 1012.02 1012.21 1012.41 1012.60 1012.80 1012.99 1013.18 1013.36
1016.47 1016.67 1016.79 1016.83 1016.81 1016.72 1016.58 1016.42 1016.23 1016.06 1015.90 1015.79 1015.71 1015.68 1015.70 1015.74 1015.81 1015.87 1015.90 1015.89 1015.81 1015.65 1015.40 1015.06 1014.65 1014.18 1013.69 1013.19 1012.72 1012.30 1011.96 1011.70 1011.54 1011.46 1011.46 1011.52 1011.62 1011.76 1011.92 1012.08 1012.25 1012.43 1012.60 1012.78
1016.38 1016.54 1016.63 1016.65 1016.62 1016.55 1016.44 1016.32 1016.19 1016.07 1015.97 1015.89 1015.85 1015.84 1015.86 1015.89 1015.93 1015.95 1015.95 1015.90 1015.78 1015.60 1015.34 1015.00 1014.60 1014.14 1013.66 1013.18 1012.71 1012.28 1011.92 1011.63 1011.42 1011.28 1011.21 1011.20 1011.24 1011.31 1011.40 1011.51 1011.63 1011.77 1011.91 1012.06
1016.12 1016.25 1016.32 1016.35 1016.33 1016.29 1016.23 1016.16 1016.10 1016.05 1016.01 1015.99 1015.98 1015.99 1016.01 1016.02 1016.03 1016.01 1015.96 1015.87 1015.72 1015.50 1015.23 1014.89 1014.49 1014.06 1013.59 1013.12 1012.67 1012.24 1011.86 1011.54 1011.29 1011.09 1010.96 1010.87 1010.83 1010.82 1010.83 1010.87 1010.93 1011.01 1011.11 1011.23
1015.79 1015.90 1015.97 1016.00 1016.01 1016.01 1016.00 1016.00 1016.01 1016.03 1016.05 1016.08 1016.11 1016.13 1016.14 1016.14 1016.11 1016.05 1015.95 1015.80 1015.61 1015.36 1015.06 1014.71 1014.32 1013.89 1013.44 1012.98 1012.54 1012.11 1011.72 1011.37 1011.08 1010.83 1010.62 1010.47 1010.35 1010.26 1010.20 1010.16 1010.15 1010.17 1010.22 1010.30
1015.50 1015.60 1015.66 1015.71 1015.76 1015.80 1015.85 1015.90 1015.97 1016.04 1016.11 1016.18 1016.23 1016.25 1016.25 1016.22 1016.15 1016.04 1015.89 1015.69 1015.45 1015.15 1014.82 1014.45 1014.04 1013.60 1013.16 1012.70 1012.26 1011.83 1011.43 1011.06 1010.73 1010.43 1010.18 1009.96 1009.77 1009.61 1009.48 1009.38 1009.31 1009.27 1009.28 1009.33
1015.34 1015.44 1015.51 1015.58 1015.66 1015.74 1015.83 1015.93 1016.03 1016.13 1016.22 1016.29 1016.34 1016.35 1016.32 1016.25 1016.13 1015.97 1015.75 1015.49 1015.19 1014.85 1014.46 1014.05 1013.62 1013.16 1012.70 1012.24 1011.79 1011.36 1010.94 1010.56 1010.21 1009.89 1009.60 1009.34 1009.10 1008.89 1008.71 1008.56 1008.44 1008.37 1008.34 1008.37
Thickness
5782 5770 5761 5767 5773 5772 5767 5759 5753 5758 5770 5763 5756 5756 5761 5767 5765 5762 5761 5759 5758 5757 5759 5759 5756 5753 5750 5748 5746 5742 5738 5736 5732 5728 5725 5722 5719 5720 5719 5719 5718 5718 5717 5715
5767 5760 5773 5780 5778 5772 5766 5756 5753 5760 5769 5762 5754 5755 5765 5768 5766 5765 5763 5762 5760 5758 5757 5755 5755 5752 5748 5745 5744 5741 5737 5734 5731 5728 5726 5722 5719 5718 5718 5717 5716 5716 5715 5714
5759 5767 5779 5775 5769 5763 5760 5754 5752 5751 5758 5761 5753 5746 5756 5765 5769 5768 5768 5767 5764 5759 5755 5753 5751 5749 5746 5743 5742 5741 5737 5734 5731 5728 5724 5721 5718 5715 5714 5713 5713 5714 5713 5712
5765 5774 5772 5766 5763 5762 5751 5763 5759 5753 5743 5740 5748 5724 5746 5758 5758 5761 5762 5764 5763 5762 5759 5754 5750 5746 5744 5743 5742 5740 5737 5733 5730 5727 5721 5717 5712 5709 5710 5711 5712 5712 5712 5710
5758 5767 5765 5759 5762 5764 5758 5765 5759 5753 5744 5739 5746 5732 5741 5756 5749 5754 5760 5762 5763 5762 5759 5755 5751 5746 5744 5742 5740 5738 5735 5731 5728 5724 5721 5716 5713 5711 5711 5711 5711 5710 5710 5709
5761 5772 5769 5766 5770 5769 5764 5758 5754 5752 5741 5724 5743 5736 5732 5749 5753 5756 5760 5762 5762 5761 5758 5755 5752 5747 5742 5740 5737 5735 5731 5727 5725 5723 5720 5717 5713 5711 5709 5708 5707 5707 5706 5707
5747 5758 5767 5770 5758 5760 5757 5738 5721 5718 5716 5725 5753 5741 5737 5759 5765 5763 5760 5761 5762 5761 5756 5752 5747 5743 5740 5737 5734 5732 5728 5724 5723 5721 5719 5717 5715 5713 5710 5708 5706 5705 5704 5703
5734 5736 5756 5762 5755 5748 5750 5743 5720 5710 5716 5729 5744 5736 5745 5766 5769 5769 5766 5764 5761 5758 5755 5750 5747 5743 5738 5735 5732 5729 5726 5723 5722 5720 5718 5717 5715 5713 5711 5709 5707 5705 5704 5703
5737 5734 5756 5760 5763 5756 5745 5743 5750 5734 5731 5724 5732 5740 5749 5763 5761 5761 5760 5759 5756 5755 5753 5749 5746 5742 5738 5734 5731 5728 5726 5723 5721 5719 5718 5716 5715 5712 5710 5709 5708 5706 5705 5704
5743 5730 5743 5752 5754 5754 5750 5748 5740 5727 5711 5708 5725 5731 5730 5742 5747 5751 5753 5752 5753 5753 5750 5748 5744 5741 5738 5734 5731 5728 5725 5722 5721 5719 5717 5715 5713 5712 5710 5708 5706 5705 5704 5703
5742 5730 5732 5739 5734 5733 5738 5736 5736 5732 5728 5710 5706 5719 5751 5747 5749 5747 5749 5752 5751 5750 5747 5744 5742 5740 5737 5733 5729 5726 5723 5721 5719 5717 5715 5713 5711 5710 5708 5706 5705 5704 5703 5702
5736 5728 5722 5732 5745 5748 5740 5735 5730 5715 5718 5725 5713 5715 5758 5754 5753 5750 5748 5749 5750 5748 5745 5743 5740 5737 5733 5730 5727 5724 5722 5719 5717 5716 5713 5711 5710 5708 5706 5704 5703 5702 5701 5700
5725 5718 5708 5710 5720 5730 5730 5732 5731 5727 5722 5717 5709 5715 5751 5750 5748 5746 5744 5744 5744 5743 5741 5738 5735 5733 5730 5728 5725 5722 5720 5718 5716 5713 5711 5708 5706 5704 5703 5701 5700 5700 5699 5698
5717 5712 5707 5699 5709 5718 5716 5720 5724 5719 5709 5711 5717 5720 5734 5737 5737 5738 5738 5738 5739 5737 5735 5733 5730 5729 5728 5726 5724 5721 5718 5717 5714 5711 5707 5704 5703 5701 5700 5699 5698 5697 5696 5695
5712 5703 5709 5714 5719 5719 5715 5715 5718 5715 5716 5711 5718 5721 5729 5734 5733 5734 5735 5734 5732 5730 5728 5727 5726 5725 5724 5723 5721 5720 5717 5715 5713 5708 5704 5702 5701 5699 5697 5696 5694 5693 5692 5692
5705 5698 5700 5701 5712 5712 5708 5714 5716 5715 5717 5716 5717 5719 5735 5737 5735 5732 5730 5729 5726 5724 5724 5723 5722 5722 5721 5720 5718 5717 5715 5713 5711 5706 5703 5700 5698 5696 5693 5692 5690 5689 5687 5686
5695 5692 5685 5686 5700 5699 5694 5712 5714 5715 5718 5715 5708 5717 5728 5725 5725 5725 5725 5724 5722 5720 5720 5720 5719 5718 5718 5718 5717 5714 5713 5711 5708 5704 5701 5698 5694 5692 5690 5688 5686 5683 5682 5681
5687 5684 5679 5679 5682 5669 5700 5724 5722 5715 5715 5719 5717 5720 5722 5721 5723 5725 5724 5720 5718 5718 5717 5717 5716 5715 5716 5716 5714 5713 5711 5708 5704 5700 5697 5694 5691 5687 5686 5683 5681 5679 5678 5677
5687 5678 5670 5670 5667 5680 5697 5711 5712 5704 5702 5713 5712 5713 5715 5718 5716 5714 5718 5718 5716 5715 5714 5714 5713 5713 5712 5711 5710 5708 5705 5704 5700 5697 5694 5691 5688 5684 5681 5679 5677 5676 5674 5673
5679 5677 5666 5664 5657 5661 5689 5706 5713 5702 5688 5707 5708 5706 5707 5706 5692 5695 5708 5710 5710 5709 5710 5709 5709 5707 5706 5705 5705 5701 5699 5698 5695 5693 5690 5688 5685 5681 5678 5676 5675 5673 5671 5669
5660 5659 5656 5655 5655 5670 5692 5700 5699 5674 5680 5700 5702 5700 5698 5695 5693 5697 5702 5701 5702 5702 5702 5703 5702 5700 5699 5699 5698 5694 5694 5692 5692 5690 5688 5684 5681 5679 5676 5674 5672 5670 5667 5665
5657 5654 5653 5653 5648 5659 5689 5689 5681 5681 5692 5694 5694 5693 5690 5690 5692 5693 5692 5692 5693 5693 5694 5695 5694 5693 5693 5693 5691 5688 5687 5688 5687 5685 5682 5679 5677 5675 5673 5669 5668 5666 5663 5659
5660 5663 5662 5661 5662 5678 5685 5684 5686 5688 5684 5685 5685 5685 5683 5681 5682 5683 5684 5685 5686 5686 5686 5687 5686 5685 5685 5685 5684 5680 5681 5682 5681 5678 5675 5674 5672 5670 5668 5665 5662 5660 5657 5654
5661 5666 5661 5659 5666 5673 5676 5678 5679 5680 5678 5678 5678 5677 5676 5673 5673 5675 5676 5677 5678 5678 5678 5679 5678 5676 5676 5677 5677 5676 5676 5675 5673 5670 5668 5667 5665 5663 5662 5660 5658 5655 5653 5650
5649 5652 5650 5651 5659 5661 5664 5667 5669 5670 5671 5670 5670 5668 5667 5665 5665 5667 5668 5669 5670 5670 5671 5671 5670 5669 5669 5670 5669 5669 5668 5667 5664 5662 5661 5660 5658 5656 5654 5652 5651 5650 5650 5649
5644 5643 5640 5642 5653 5650 5653 5659 5661 5659 5658 5658 5658 5657 5659 5658 5657 5659 5660 5661 5662 5662 5663 5663 5663 5662 5662 5662 5662 5661 5661 5659 5655 5654 5653 5652 5650 5648 5646 5644 5643 5643 5644 5644